Location: Natural Bridges National Monument
(37.6093°N, 109.9767°W)
Time: 14:15:06
(UTC-06:00)

Amateur Radio Satellites - All Passes

Search period start: 22 September 2014 13:45
Search period end: 23 September 2014 13:45
Location: Natural Bridges National Monument, 37.6093°N, 109.9767°W

Satellite Date Start Highest point End Downlink Frequencies (MHz)
Time Altitude Azimuth
ITAMSAT 1 22 Sep 14:30:08 14:35:12 61° 73° (ENE) 14:40:18 435.822 SSB
Uribyol 2 22 Sep 14:33:26 14:38:33 70° 74° (ENE) 14:43:44 436.500 FM
Gurwin Techsat 1B 22 Sep 14:37:30 14:42:12 34° 69° (ENE) 14:46:55 435.225 FM
Oscar 19 22 Sep 14:40:10 14:45:06 45° 261° (W) 14:50:06 437.125 CW, 437.150 USB
JAS-1B 22 Sep 14:54:43 15:03:20 73° 257° (WSW) 15:10:32 435.800 - 435.900 CW/SSB
AO-27 22 Sep 15:06:01 15:11:06 59° 259° (W) 15:16:14 436.795 MHz FM
AO-Echo 22 Sep 15:07:14 15:11:47 47° 260° (W) 15:16:19 ?
TMSAT-1 22 Sep 15:11:58 15:17:04 52° 72° (ENE) 15:22:11 436.925 FM
AO-7 22 Sep 15:18:37 15:25:07 27° 57° (ENE) 15:31:36 29.400 - 29.500 MHz
Oscar 16 22 Sep 15:21:21 15:24:49 18° 267° (W) 15:28:19 437.025 USB, Beacon 2401.1428
RS-15 22 Sep 15:36:01 15:45:14 31° 255° (WSW) 15:54:49 29.354 - 29.394 USB, Beacon 29.352 USB
ITAMSAT 1 22 Sep 16:12:22 16:15:04 14° 268° (W) 16:17:47 435.822 SSB
Uribyol 2 22 Sep 16:16:30 16:18:30 12° 269° (W) 16:20:31 436.500 FM
Gurwin Techsat 1B 22 Sep 16:17:40 16:22:09 28° 264° (W) 16:26:39 435.225 FM
Uosat F 22 Sep 16:19:57 16:24:33 39° 70° (ENE) 16:29:10 435.120 FM
Saudisat 1A 22 Sep 16:40:36 16:44:53 57° 117° (ESE) 16:49:13 436.775 MHz
JAS-1B 22 Sep 16:52:34 16:54:27 11° 269° (W) 16:56:18 435.800 - 435.900 CW/SSB
TMSAT-1 22 Sep 16:53:48 16:57:15 18° 267° (W) 17:00:43 436.925 FM
AO-7 22 Sep 17:08:57 17:17:12 68° 255° (WSW) 17:25:29 29.400 - 29.500 MHz
MaSat-1 22 Sep 17:10:09 17:12:45 18° 54° (NE) 17:15:07 437.345 MHz
JAS-2 22 Sep 17:23:44 17:27:43 23° 66° (ENE) 17:31:43 435.800 - 435.900 CW/SSB, 435.910 FM
KITSAT 1 22 Sep 17:29:26 17:32:06 12° 99° (E) 17:34:45 435.175 FM
OPAL 22 Sep 17:34:56 17:39:31 32° 99° (E) 17:44:01 ?
Uosat F 22 Sep 17:59:39 18:03:25 21° 265° (W) 18:07:13 435.120 FM
Saudisat 1A 22 Sep 18:22:01 18:24:49 16° 314° (NW) 18:27:37 436.775 MHz
Hamsat 22 Sep 18:31:03 18:35:24 87° 258° (WSW) 18:39:47 145.90 MHz
MaSat-1 22 Sep 18:46:41 18:49:21 21° 256° (WSW) 18:51:44 437.345 MHz
JAS-2 22 Sep 19:07:50 19:12:38 36° 262° (W) 19:17:25 435.800 - 435.900 CW/SSB, 435.910 FM
OPAL 22 Sep 19:13:55 19:18:15 28° 295° (WNW) 19:22:32 ?
SO-67 22 Sep 19:17:43 19:20:53 35° 74° (ENE) 19:24:04 435.3500 MHz FM
KITSAT 1 22 Sep 19:18:04 19:26:07 75° 115° (ESE) 19:34:11 435.175 FM
STRAND 1 22 Sep 19:59:36 20:04:42 61° 101° (ESE) 20:09:46 ?
HO-68 22 Sep 20:06:54 20:12:08 23° 59° (ENE) 20:17:21 435.675 MHz FM
Sapphire 22 Sep 20:20:05 20:24:10 21° 50° (NE) 20:28:13 437.095 MHz 1200 baud AX-25 AFSK
PCSat 22 Sep 20:46:10 20:51:09 36° 55° (NE) 20:56:05 145.825 MHz
SO-67 22 Sep 20:53:22 20:54:03 11° 268° (W) 20:54:45 435.3500 MHz FM
KITSAT 1 22 Sep 21:15:43 21:22:16 27° 316° (NW) 21:28:52 435.175 FM
SO-50 22 Sep 21:17:40 21:21:24 27° 112° (ESE) 21:25:12 436.795 FM
STRAND 1 22 Sep 21:40:25 21:43:20 16° 297° (WNW) 21:46:16 ?
HO-68 22 Sep 21:52:06 21:59:10 68° 257° (WSW) 22:06:18 435.675 MHz FM
Oscar 11 22 Sep 21:52:15 21:56:20 41° 73° (ENE) 22:00:27 145.825 FM, Beacon 2401.500 USB
FUNcube-1 22 Sep 21:52:54 21:55:49 17° 66° (ENE) 21:58:47 145.950 - 145.970 MHz USB
Sapphire 22 Sep 22:02:38 22:07:56 56° 247° (WSW) 22:13:12 437.095 MHz 1200 baud AX-25 AFSK
UKube-1 22 Sep 22:12:16 22:16:35 79° 257° (WSW) 22:20:57 145.840 MHz, 145.915 MHz
Oscar 10/S400 22 Sep 22:13:32 22:45:13 65° 191° (S) 08:11:26 145.825 - 145.975 CW/USB, Beacon 145.810 USB
PCSat 22 Sep 22:29:47 22:34:25 29° 252° (WSW) 22:39:01 145.825 MHz
ZACube-1 22 Sep 22:34:25 22:38:41 49° 73° (ENE) 22:43:04 437.345 MHz
UOSAT-12 22 Sep 22:37:34 22:40:02 14° 108° (ESE) 22:42:30 437.025 FM, 437.400 FM
AO-40 22 Sep 22:47:02 00:51:50 32° 211° (SSW) 05:19:14 Beacon 2401.320
SO-50 22 Sep 22:57:52 23:01:50 30° 309° (NW) 23:05:54 436.795 FM
FUNcube-1 22 Sep 23:27:40 23:31:50 41° 262° (W) 23:36:07 145.950 - 145.970 MHz USB
Oscar 11 22 Sep 23:30:06 23:32:41 15° 267° (W) 23:35:17 145.825 FM, Beacon 2401.500 USB
ZACube-1 23 Sep 00:13:09 00:15:22 14° 269° (W) 00:17:38 437.345 MHz
UOSAT-12 23 Sep 00:15:07 00:19:39 57° 304° (WNW) 00:24:17 437.025 FM, 437.400 FM
PANSAT 23 Sep 00:35:30 00:37:50 16° 168° (SSE) 00:40:10 not established
Saudisat 1A 23 Sep 01:09:22 01:13:10 27° 51° (NE) 01:16:56 436.775 MHz
Oscar 16 23 Sep 01:54:49 01:58:35 20° 94° (E) 02:02:19 437.025 USB, Beacon 2401.1428
ISS 23 Sep 01:55:14 01:58:33 80° 320° (NW) 02:01:53 145.800 FM
PANSAT 23 Sep 02:14:30 02:17:25 21° 180° (S) 02:20:20 not established
JAS-1B 23 Sep 02:42:55 02:47:49 29° 97° (E) 02:52:52 435.800 - 435.900 CW/SSB
ITAMSAT 1 23 Sep 02:45:32 02:49:49 25° 95° (E) 02:54:05 435.822 SSB
Uribyol 2 23 Sep 02:48:35 02:53:07 29° 96° (E) 02:57:36 436.500 FM
Saudisat 1A 23 Sep 02:48:53 02:52:41 29° 247° (WSW) 02:56:28 436.775 MHz
Oscar 19 23 Sep 02:53:28 02:58:39 76° 103° (ESE) 03:03:46 437.125 CW, 437.150 USB
Gurwin Techsat 1B 23 Sep 02:56:46 02:59:48 15° 92° (E) 03:02:49 435.225 FM
KITSAT 1 23 Sep 03:13:58 03:20:42 28° 45° (NE) 03:27:23 435.175 FM
AO-Echo 23 Sep 03:15:37 03:20:30 62° 101° (E) 03:25:30 ?
AO-27 23 Sep 03:20:54 03:26:04 58° 101° (E) 03:31:12 436.795 MHz FM
TMSAT-1 23 Sep 03:30:21 03:34:36 24° 95° (E) 03:38:49 436.925 FM
Oscar 16 23 Sep 03:33:13 03:38:06 43° 289° (WNW) 03:42:56 437.025 USB, Beacon 2401.1428
ISS 23 Sep 03:33:49 03:35:43 14° 338° (NNW) 03:37:37 145.800 FM
RS-15 23 Sep 03:43:39 03:54:15 54° 111° (ESE) 04:04:40 29.354 - 29.394 USB, Beacon 29.352 USB
PANSAT 23 Sep 03:54:47 03:57:00 15° 193° (SSW) 03:59:13 not established
ITAMSAT 1 23 Sep 04:24:36 04:29:19 36° 291° (WNW) 04:34:02 435.822 SSB
Uribyol 2 23 Sep 04:27:57 04:32:31 31° 292° (WNW) 04:37:04 436.500 FM
Uosat F 23 Sep 04:31:08 04:33:37 14° 92° (E) 04:36:06 435.120 FM
JAS-1B 23 Sep 04:33:35 04:38:31 31° 293° (WNW) 04:43:31 435.800 - 435.900 CW/SSB
Gurwin Techsat 1B 23 Sep 04:34:54 04:40:07 59° 287° (WNW) 04:45:19 435.225 FM
Oscar 19 23 Sep 04:35:10 04:37:18 13° 299° (WNW) 04:39:25 437.125 CW, 437.150 USB
OPAL 23 Sep 04:47:40 04:52:38 48° 69° (ENE) 04:57:38 ?
AO-Echo 23 Sep 04:56:12 04:58:46 14° 296° (WNW) 05:01:23 ?
AO-27 23 Sep 05:01:51 05:05:04 17° 297° (WNW) 05:08:17 436.795 MHz FM
KITSAT 1 23 Sep 05:08:45 05:16:46 71° 245° (WSW) 05:24:45 435.175 FM
TMSAT-1 23 Sep 05:09:42 05:14:35 38° 290° (WNW) 05:19:26 436.925 FM
AO-7 23 Sep 05:12:46 05:20:42 48° 101° (E) 05:28:35 29.400 - 29.500 MHz
SO-50 23 Sep 05:50:56 05:54:20 19° 46° (NE) 05:57:45 436.795 FM
RS-15 23 Sep 05:56:27 06:06:46 44° 313° (NW) 06:17:05 29.354 - 29.394 USB, Beacon 29.352 USB
Uosat F 23 Sep 06:07:48 06:12:46 61° 287° (WNW) 06:17:43 435.120 FM
JAS-2 23 Sep 06:16:37 06:22:10 30° 97° (E) 06:28:15 435.800 - 435.900 CW/SSB, 435.910 FM
Hamsat 23 Sep 06:19:47 06:22:47 19° 94° (E) 06:25:44 145.90 MHz
OPAL 23 Sep 06:28:04 06:31:42 19° 265° (W) 06:35:23 ?
ISS 23 Sep 06:50:13 06:51:39 12° 19° (NNE) 06:53:06 145.800 FM
MaSat-1 23 Sep 06:53:33 06:56:34 16° 102° (ESE) 06:59:34 437.345 MHz
AO-7 23 Sep 07:05:53 07:13:14 37° 298° (WNW) 07:20:35 29.400 - 29.500 MHz
UOSAT-12 23 Sep 07:09:09 07:10:12 11° 39° (NE) 07:11:14 437.025 FM, 437.400 FM
KITSAT 1 23 Sep 07:09:13 07:10:42 11° 262° (W) 07:12:11 435.175 FM
STRAND 1 23 Sep 07:13:38 07:18:41 73° 75° (ENE) 07:23:47 ?
SO-50 23 Sep 07:30:30 07:35:15 58° 243° (WSW) 07:40:01 436.795 FM
Hamsat 23 Sep 07:55:02 07:58:47 31° 289° (WNW) 08:02:29 145.90 MHz
JAS-2 23 Sep 08:01:21 08:07:13 43° 289° (WNW) 08:13:46 435.800 - 435.900 CW/SSB, 435.910 FM
SO-67 23 Sep 08:15:43 08:19:08 57° 100° (E) 08:22:31 435.3500 MHz FM
RS-15 23 Sep 08:16:46 08:23:10 17° 345° (NNW) 08:29:37 29.354 - 29.394 USB, Beacon 29.352 USB
ISS 23 Sep 08:25:40 08:28:57 56° 37° (NE) 08:32:13 145.800 FM
MaSat-1 23 Sep 08:27:55 08:32:49 56° 297° (WNW) 08:37:38 437.345 MHz
UOSAT-12 23 Sep 08:46:29 08:51:12 72° 58° (ENE) 08:55:50 437.025 FM, 437.400 FM
STRAND 1 23 Sep 08:56:50 08:58:22 11° 270° (W) 08:59:54 ?
HO-68 23 Sep 09:22:39 09:28:28 26° 95° (E) 09:34:15 435.675 MHz FM
UKube-1 23 Sep 10:03:15 10:06:28 20° 95° (E) 10:09:41 145.840 MHz, 145.915 MHz
ISS 23 Sep 10:03:43 10:05:18 13° 232° (SW) 10:06:53 145.800 FM
ZACube-1 23 Sep 10:27:52 10:29:34 12° 90° (E) 10:31:16 437.345 MHz
UOSAT-12 23 Sep 10:29:21 10:30:41 11° 254° (WSW) 10:32:02 437.025 FM, 437.400 FM
RS-15 23 Sep 10:34:33 10:41:52 19° 23° (NNE) 10:49:18 29.354 - 29.394 USB, Beacon 29.352 USB
Sapphire 23 Sep 11:00:15 11:04:34 25° 107° (ESE) 11:08:54 437.095 MHz 1200 baud AX-25 AFSK
HO-68 23 Sep 11:09:29 11:16:26 55° 291° (WNW) 11:23:22 435.675 MHz FM
Oscar 11 23 Sep 11:17:34 11:21:54 73° 284° (WNW) 11:26:12 145.825 FM, Beacon 2401.500 USB
FUNcube-1 23 Sep 11:18:34 11:23:00 45° 99° (E) 11:27:19 145.950 - 145.970 MHz USB
PCSat 23 Sep 11:25:48 11:30:56 47° 112° (ESE) 11:36:07 145.825 MHz
UKube-1 23 Sep 11:38:49 11:42:41 32° 290° (WNW) 11:46:33 145.840 MHz, 145.915 MHz
ZACube-1 23 Sep 12:01:47 12:06:20 59° 285° (WNW) 12:10:47 437.345 MHz
Oscar 19 23 Sep 12:34:03 12:34:59 11° 60° (ENE) 12:35:55 437.125 CW, 437.150 USB
Sapphire 23 Sep 12:42:38 12:47:43 41° 303° (WNW) 12:52:50 437.095 MHz 1200 baud AX-25 AFSK
RS-15 23 Sep 12:46:39 12:57:31 55° 52° (NE) 13:08:47 29.354 - 29.394 USB, Beacon 29.352 USB
FUNcube-1 23 Sep 12:56:04 12:58:58 17° 294° (WNW) 13:01:51 145.950 - 145.970 MHz USB
Oscar 16 23 Sep 13:09:54 13:14:05 25° 67° (ENE) 13:18:17 437.025 USB, Beacon 2401.1428
PCSat 23 Sep 13:10:14 13:14:34 24° 309° (NW) 13:18:56 145.825 MHz
JAS-1B 23 Sep 13:25:20 13:32:04 29° 66° (ENE) 13:37:55 435.800 - 435.900 CW/SSB
